[[{"header":{"parameterUnit":"m.s-1","parameterCategory":1,"la1":30.2991,"la2":30.254,"lo1":-89.0895,"lo2":-89.0444,"dy":0.0017,"dx":0.0017,"nx":28,"ny":28,"refTime":"2025-04-10T03:00:00:Z","depth":0,"parameterNumber":2,"parameterNumberName":"U-component_of_WINDS"},"data":[0,0,0,0,0,0,0,0,0,0,0,0,0,0,0,0,0,0,0,0,0,0,0,0,0,0,0,0,0,0,0,0,0,0,0,0,0,0,0,0,0,0,0,0,0,0,0,0,0,0,0,0,0,0,0,0,0,0,4.382,4.3821,0,4.3927,4.3928,4.3929,4.3834,4.383,4.3826,4.3823,4.393,4.3937,4.3943,0,0,0,0,0,0,0,0,0,0,0,0,0,4.3531,4.3536,4.382,4.3821,4.3822,4.3927,4.3928,4.393,4.3835,4.383,4.3825,4.3821,4.3928,4.3936,4.3944,0,0,0,0,0,0,0,0,0,0,0,0,0,4.3649,4.3538,4.3819,4.3788,4.3786,4.3926,4.3928,4.393,4.3836,4.383,4.3824,4.3819,4.3926,4.3935,4.3945,4.4121,0,0,4.3974,4.3979,0,0,0,0,0,0,0,0,4.3642,4.3659,4.3791,4.379,4.3788,4.3861,4.3865,4.3994,4.3837,4.3817,4.3823,4.3816,4.3912,4.3922,4.3955,4.4126,4.4131,4.3975,4.3981,4.3985,4.3988,0,0,0,0,0,0,0,4.3634,4.3654,4.3862,4.3793,4.3792,4.3767,4.3778,4.3889,4.3896,4.3818,4.3812,4.3826,4.391,4.3946,4.3957,4.4133,4.3975,4.3984,4.399,4.3993,4.4453,4.4459,0,0,0,0,0,0,4.363,4.3648,4.3858,4.3865,4.37,4.3777,4.3789,4.3844,4.3894,4.3896,4.383,4.3821,4.3932,4.3946,4.396,4.417,4.3985,4.3994,4.4,4.4447,4.4455,4.4462,0,0,0,0,0,0,4.3624,4.3649,4.3854,4.3755,4.3779,4.3788,4.3851,4.3849,4.3885,4.3904,4.3904,4.3866,4.3928,4.3947,4.4082,4.4173,4.3999,4.4008,4.4439,4.4449,4.4458,4.4592,0,0,0,0,0,0,4.3616,4.3648,4.3716,4.3757,4.3785,4.3975,4.3856,4.3855,4.3902,4.389,4.3937,4.3939,4.3925,4.4068,4.4092,4.4183,4.4015,4.4431,4.4444,4.4455,4.4579,4.4605,4.4626,0,0,0,0,0,4.3606,4.3749,4.372,4.3745,4.387,4.3981,4.3996,4.3978,4.391,4.3978,4.399,4.3938,4.4159,4.4083,4.4109,4.4204,4.4425,4.444,4.4454,4.4569,4.46,4.4626,0,0,0,0,0,0,4.3717,4.3753,4.3722,4.3882,4.3929,4.3964,4.4049,4.4011,4.4078,4.4064,4.4037,4.4048,4.4191,4.4211,4.4125,4.4377,4.4281,4.4301,4.4359,4.4389,4.4412,4.4404,4.4023,0,0,0,0,0,4.376,4.3847,4.3874,4.4013,4.4039,4.4041,4.4088,4.4069,4.4117,4.4136,4.4157,4.4205,4.4284,4.4338,4.4412,4.4581,4.459,4.466,4.4683,4.4703,4.472,4.4811,4.4842,4.4509,4.4509,4.4508,0,0,4.385,4.3881,4.3937,4.4037,4.4071,4.4161,4.4058,4.4158,4.4224,4.4151,4.428,4.4298,4.4348,4.4502,4.457,4.4522,4.4814,4.4721,4.4736,4.4744,4.4829,4.486,4.4888,4.4518,4.4517,4.4515,0,0,4.406,4.4092,4.4212,4.4248,4.4302,4.4302,4.433,4.4372,4.4381,4.4511,4.4457,4.4535,4.4674,4.4712,4.475,4.4974,4.4929,4.4999,4.5123,4.5211,4.5237,4.526,4.534,4.5369,4.5017,4.5017,4.5018,0,4.4165,4.43,4.4278,4.4382,4.4427,4.4365,4.4485,4.4521,4.4596,4.4628,4.4574,4.4746,4.4776,4.4937,4.4992,4.5024,4.5056,4.4994,4.5235,4.5258,4.528,4.5355,4.5386,4.5025,4.5025,4.5024,4.5023,0,4.4426,4.452,4.461,4.4685,4.474,4.4852,4.4846,4.4904,4.4881,4.4886,4.5018,4.5052,4.5132,4.5169,4.5147,4.5327,4.5296,4.5239,4.5142,4.532,4.5391,4.542,4.5037,4.5034,4.5032,4.503,0,0,4.4709,4.477,4.4803,4.4836,4.4891,4.4963,4.5071,4.5151,4.5201,4.5254,4.5344,4.5463,4.5411,4.5454,4.5435,4.5513,4.5688,4.5446,4.5447,4.549,4.5888,4.593,4.5964,4.5659,4.5664,4.5669,4.5884,0,4.4921,4.5111,4.5094,4.5274,4.536,4.5302,4.5397,4.544,4.5448,4.5522,4.553,4.5615,4.554,4.5565,4.564,4.5652,4.5768,4.5636,4.5741,4.5746,4.5731,4.6001,4.6047,4.6248,4.5911,4.5916,4.5919,0,4.5194,4.5258,4.5447,4.5488,4.5523,4.5609,4.568,4.5751,4.5799,4.5799,4.5847,4.5815,4.5924,4.5825,4.5973,4.5884,4.5926,4.5938,4.5945,4.5954,4.5843,4.6017,4.6312,4.6342,4.5963,4.5959,4.5956,0,4.5381,4.5514,4.5644,4.5674,4.5726,4.5787,4.5811,4.5852,4.5901,4.5963,4.5994,4.6067,4.6107,4.6165,4.6153,4.6082,4.6305,4.6204,4.6307,4.6308,4.6357,4.6354,4.6662,4.6385,4.6384,4.6384,4.6383,0,4.562,4.5737,4.5729,4.5809,4.5939,4.5918,4.6047,4.6063,4.6101,4.6182,4.6136,4.6213,4.6194,4.627,4.6262,4.6386,4.6404,4.6407,4.6403,4.6411,4.6411,4.6438,4.6424,4.6392,4.639,4.6388,4.6387,0,4.5851,4.585,4.5988,4.6025,4.6037,4.6132,4.6163,4.6238,4.6242,4.6346,4.6369,4.6375,4.6463,4.6457,4.6555,4.655,4.6703,4.6683,4.6687,4.6683,4.6786,4.6776,4.7122,4.7166,4.6861,4.6864,4.6866,0,4.6003,4.6092,4.614,4.6191,4.622,4.6303,4.6353,4.6335,4.6388,4.6449,4.6517,4.66,4.6666,4.6808,4.6821,4.6896,4.6877,4.6993,4.6888,4.6893,4.6878,4.6873,4.6881,4.7014,4.7017,4.702,4.7022,0,4.6274,4.6269,4.6342,4.6417,4.6477,4.6534,4.6586,4.6631,4.6618,4.6681,4.677,4.6821,4.6922,4.7005,4.7076,4.7099,4.7059,4.7055,4.7083,4.7092,4.709,4.7092,4.6743,4.7047,4.7045,4.7043,4.7041,4.704,4.647,4.6546,4.6591,4.6675,4.6712,4.6762,4.6834,4.6848,4.6922,4.7003,4.6988,4.7088,4.7132,4.7224,4.7254,4.7332,4.729,4.733,4.734,4.735,4.7362,4.7079,4.7344,4.7344,4.7343,4.7342,4.7342,0,4.6737,4.6764,4.6841,4.6915,4.6981,4.6938,4.6993,4.705,4.7139,4.7184,4.725,4.7352,4.7433,4.7452,4.7529,4.7587,4.757,4.7607,4.7603,4.7609,4.7395,4.7363,4.762,4.762,4.762,4.7619,4.7619,4.7619,4.6884,4.7012,4.7012,4.7157,4.7182,4.728,4.7316,4.7361,4.7397,4.7513,4.758,4.7592,4.7627,4.7705,4.7777,4.778,4.781,4.7855,4.7852,4.7652,4.7624,4.7597,4.7567,4.7862,4.7862,4.8058,4.806,4.8062]},{"header":{"parameterUnit":"m.s-1","parameterCategory":1,"la1":30.2991,"la2":30.254,"lo1":-89.0895,"lo2":-89.0444,"dy":0.0017,"dx":0.0017,"nx":28,"ny":28,"refTime":"2025-04-10T03:00:00:Z","depth":0,"parameterNumber":3,"parameterNumberName":"V-component_of_WINDS"},"data":[0,0,0,0,0,0,0,0,0,0,0,0,0,0,0,0,0,0,0,0,0,0,0,0,0,0,0,0,0,0,0,0,0,0,0,0,0,0,0,0,0,0,0,0,0,0,0,0,0,0,0,0,0,0,0,0,0,0,-1.9046,-1.9046,0,-1.9031,-1.9031,-1.9031,-1.897,-1.8969,-1.8968,-1.8966,-1.8952,-1.8952,-1.8953,0,0,0,0,0,0,0,0,0,0,0,0,0,-1.9023,-1.9024,-1.9046,-1.9046,-1.9045,-1.9031,-1.9031,-1.9031,-1.8971,-1.8969,-1.8967,-1.8966,-1.8951,-1.8952,-1.8953,0,0,0,0,0,0,0,0,0,0,0,0,0,-1.9023,-1.9024,-1.9046,-1.9014,-1.9011,-1.9031,-1.9031,-1.903,-1.8971,-1.8969,-1.8967,-1.8965,-1.8951,-1.8952,-1.8954,-1.9004,0,0,-1.8958,-1.8958,0,0,0,0,0,0,0,0,-1.9023,-1.9024,-1.9019,-1.9016,-1.9013,-1.9,-1.9017,-1.9022,-1.8972,-1.8986,-1.8966,-1.8964,-1.897,-1.8969,-1.8971,-1.9003,-1.9002,-1.8958,-1.8959,-1.8959,-1.896,0,0,0,0,0,0,0,-1.9023,-1.9024,-1.904,-1.9019,-1.9015,-1.9,-1.8998,-1.9018,-1.899,-1.8985,-1.898,-1.8979,-1.8967,-1.897,-1.897,-1.9002,-1.8958,-1.8959,-1.896,-1.896,-1.9075,-1.9077,0,0,0,0,0,0,-1.9028,-1.9025,-1.904,-1.9039,-1.9013,-1.9002,-1.9,-1.9006,-1.8989,-1.8985,-1.8981,-1.8977,-1.8969,-1.8969,-1.897,-1.9027,-1.8959,-1.8961,-1.8961,-1.9072,-1.9075,-1.9077,0,0,0,0,0,0,-1.9027,-1.903,-1.9041,-1.9031,-1.9031,-1.9005,-1.9013,-1.9007,-1.9009,-1.8987,-1.8981,-1.8989,-1.8967,-1.8968,-1.8996,-1.9025,-1.8961,-1.8962,-1.907,-1.9073,-1.9076,-1.9142,0,0,0,0,0,0,-1.9027,-1.903,-1.9048,-1.9032,-1.9032,-1.9067,-1.9015,-1.9008,-1.9012,-1.9006,-1.8992,-1.8988,-1.8965,-1.8994,-1.8997,-1.9026,-1.8963,-1.9067,-1.9071,-1.9075,-1.9137,-1.9147,-1.9156,0,0,0,0,0,-1.9026,-1.9068,-1.905,-1.9052,-1.9055,-1.9069,-1.9069,-1.9042,-1.9015,-1.9033,-1.9018,-1.8988,-1.9022,-1.8997,-1.9,-1.903,-1.9065,-1.907,-1.9075,-1.9133,-1.9145,-1.9156,0,0,0,0,0,0,-1.9088,-1.9065,-1.9045,-1.9082,-1.9078,-1.9059,-1.9081,-1.9056,-1.906,-1.9054,-1.9021,-1.9018,-1.9051,-1.9043,-1.9016,-1.9078,-1.9038,-1.9044,-1.9081,-1.9093,-1.9102,-1.9103,-1.8965,0,0,0,0,0,-1.9107,-1.912,-1.9099,-1.9134,-1.9133,-1.9108,-1.9113,-1.9092,-1.9087,-1.9085,-1.9073,-1.9069,-1.9078,-1.9085,-1.9093,-1.9136,-1.9132,-1.9158,-1.9168,-1.9175,-1.9181,-1.9203,-1.9214,-1.9094,-1.9094,-1.9094,0,0,-1.9144,-1.9133,-1.9143,-1.9146,-1.914,-1.9155,-1.9107,-1.9124,-1.9135,-1.9088,-1.9113,-1.9104,-1.9098,-1.9134,-1.9149,-1.9128,-1.9213,-1.9182,-1.9188,-1.9189,-1.9209,-1.9221,-1.9231,-1.9097,-1.9097,-1.9096,0,0,-1.9219,-1.9212,-1.924,-1.9236,-1.9229,-1.9212,-1.9219,-1.9204,-1.9196,-1.9221,-1.9186,-1.9199,-1.9216,-1.9213,-1.9213,-1.9289,-1.9261,-1.9292,-1.9341,-1.9363,-1.9373,-1.9381,-1.9408,-1.9418,-1.9298,-1.9298,-1.9298,0,-1.9266,-1.9287,-1.9258,-1.9278,-1.928,-1.9239,-1.9267,-1.9264,-1.926,-1.9263,-1.924,-1.9261,-1.9253,-1.9288,-1.9306,-1.9309,-1.9315,-1.9293,-1.9374,-1.9382,-1.9389,-1.9414,-1.9424,-1.9302,-1.9301,-1.9301,-1.93,0,-1.9346,-1.9361,-1.9385,-1.9381,-1.9386,-1.9411,-1.9385,-1.9394,-1.9373,-1.9359,-1.9386,-1.9376,-1.938,-1.9387,-1.9367,-1.9419,-1.9407,-1.938,-1.9339,-1.9405,-1.9428,-1.9437,-1.9307,-1.9306,-1.9304,-1.9304,0,0,-1.9459,-1.944,-1.9449,-1.9447,-1.9436,-1.9447,-1.947,-1.9475,-1.9483,-1.9481,-1.95,-1.9516,-1.949,-1.9491,-1.9471,-1.949,-1.9551,-1.946,-1.946,-1.9477,-1.9607,-1.9627,-1.9639,-1.9533,-1.9534,-1.9536,-1.9607,0,-1.953,-1.9568,-1.9542,-1.9584,-1.9597,-1.9558,-1.9578,-1.9574,-1.9561,-1.9571,-1.9558,-1.9569,-1.9535,-1.9536,-1.9553,-1.954,-1.9576,-1.9534,-1.9549,-1.955,-1.9551,-1.9651,-1.9672,-1.974,-1.9616,-1.9618,-1.9619,0,-1.9618,-1.9621,-1.9664,-1.9651,-1.9655,-1.9674,-1.9676,-1.9686,-1.9681,-1.967,-1.9672,-1.9647,-1.9668,-1.9629,-1.9658,-1.963,-1.9635,-1.963,-1.9632,-1.9632,-1.9588,-1.9653,-1.9761,-1.9772,-1.9633,-1.9632,-1.9631,0,-1.9696,-1.9711,-1.9738,-1.9738,-1.9723,-1.9737,-1.9731,-1.9724,-1.9728,-1.9731,-1.9733,-1.9739,-1.9741,-1.9746,-1.9723,-1.9697,-1.9755,-1.9714,-1.9747,-1.9748,-1.9761,-1.976,-1.9871,-1.9765,-1.9765,-1.9765,-1.9765,0,-1.9778,-1.9806,-1.9773,-1.979,-1.982,-1.9791,-1.9822,-1.9812,-1.9806,-1.982,-1.9787,-1.9802,-1.977,-1.9782,-1.9764,-1.9791,-1.9793,-1.9785,-1.978,-1.9788,-1.9789,-1.979,-1.9785,-1.9768,-1.9767,-1.9766,-1.9766,0,-1.987,-1.9849,-1.9876,-1.986,-1.9857,-1.988,-1.9866,-1.9881,-1.9867,-1.9886,-1.9889,-1.9866,-1.9878,-1.9856,-1.9865,-1.9853,-1.9891,-1.9878,-1.9892,-1.9889,-1.9923,-1.992,-2.0038,-2.0052,-1.9938,-1.9939,-1.994,0,-1.9923,-1.9944,-1.993,-1.9938,-1.9934,-1.9946,-1.9951,-1.9924,-1.993,-1.9926,-1.9941,-1.995,-1.9956,-1.9977,-1.9961,-1.9968,-1.9955,-1.9996,-1.9956,-1.9964,-1.9956,-1.9955,-1.9957,-2.0005,-2.0006,-2.0007,-2.0008,0,-2.0021,-2.0009,-2.0017,-2.0022,-2.0028,-2.0031,-2.003,-2.0039,-2.0009,-2.0018,-2.003,-2.0034,-2.0044,-2.0053,-2.0056,-2.0051,-2.0025,-2.0021,-2.0029,-2.0037,-2.0044,-2.0041,-1.9915,-2.0018,-2.0017,-2.0016,-2.0016,-2.0015,-2.0094,-2.0111,-2.0104,-2.0114,-2.0111,-2.0112,-2.0126,-2.0113,-2.0122,-2.0128,-2.0111,-2.0127,-2.0121,-2.0123,-2.012,-2.0132,-2.0114,-2.0126,-2.0128,-2.0132,-2.0137,-2.0043,-2.0133,-2.0132,-2.0132,-2.0132,-2.0132,0,-2.019,-2.0183,-2.0193,-2.0194,-2.0202,-2.0177,-2.0176,-2.0185,-2.0199,-2.0196,-2.0202,-2.0216,-2.0225,-2.0211,-2.0218,-2.023,-2.0219,-2.0233,-2.0231,-2.0231,-2.0153,-2.0145,-2.0242,-2.0242,-2.0242,-2.0242,-2.0242,-2.0242,-2.024,-2.0267,-2.0255,-2.028,-2.0273,-2.0288,-2.029,-2.0291,-2.0288,-2.0305,-2.0312,-2.0303,-2.0296,-2.0302,-2.0309,-2.0305,-2.0309,-2.0328,-2.0319,-2.0247,-2.0236,-2.0226,-2.0218,-2.0329,-2.0329,-2.0396,-2.0396,-2.0397]}]]